www.pogodaiklimat.ru

Погода и климат >> Архив погоды >> Россия >> Волгоградская область >> Михайловка


ПОГОДА в Михайловке

  • Прогноз погоды в Михайловке
  • Монитор погоды в Михайловке

АРХИВ ПОГОДЫ в Михайловке

Время (UTC), дата Ветер
(напр.,м/с)
 
Видим.   Явления Облачность Т
(С)
Тd
(С)
f
(%)
Тe
(С)
Тes
(С)
Комфортность P
(гПа)
Po
(гПа)
Тmin
(С)
Tmax
(С)
R
(мм)
R24
(мм)
S
(см)
18 12.06 С 1 20 км 6/0
[Ci fib]
+22.9 +9.5 43 +25 +25 комфорт 1013.1 1003.4
21 12.06 штиль 0 20 км ясно +19.1 +9.8 55 +20 +20 1013.5 1003.7
00 13.06 штиль 0 20 км ясно +16.8 +10.2 65 +17 +17 1013.5 1003.6
03 13.06 СВ 1 20 км 8/0
[Ac trans]
+23.5 +13.8 54 +26 +27 жарко 1013.7 1004.1 +16.0
06 13.06 С 2 20 км ясно +29.5 +14.2 39 +31 +43 жарко 1014.4 1004.9
09 13.06 С 5-11
{11}
20 км ясно +31.0 +12.2 32 +32 +41 жарко 1015.1 1005.7
12 13.06 С 3
{11}
20 км ясно +30.0 +10.8 30 +30 +40 жарко 1016.1 1006.6
15 13.06 СВ 3
{11}
20 км 4/4 600 м
[Cu med, cong]
+26.1 +11.1 39 +27 +28 жарко 1017.6 1008.0 +31.7
18 13.06 СВ 1 20 км ясно +20.6 +9.8 50 +23 +23 комфорт 1019.2 1009.4
21 13.06 СВ 2 20 км ясно +16.5 +4.3 44 +17 +17 1021.2 1011.2
00 14.06 С 1 20 км ясно +10.1 +4.1 66 +10 +10 1023.3 1013.1
03 14.06 С 1 20 км ясно +13.0 +4.2 55 +13 +16 1024.0 1013.9 +8.0
06 14.06 В 3 20 км ясно +19.3 +0.3 28 +20 +29 1023.3 1013.4
09 14.06 СВ 1 20 км ясно +23.1 -0.8 20 +22 +43 комфорт 1022.2 1012.4
12 14.06 ЮЗ 1 20 км ясно +25.8 -3.6 14 +23 +37 комфорт 1020.0 1010.3
15 14.06 ЮЗ 2 20 км ясно +25.9 -2.5 15 +24 +26 комфорт 1018.2 1008.6 +26.5
18 14.06 штиль 0 20 км ясно +16.2 +5.1 48 +16 +16 1017.2 1007.2
21 14.06 Ю 1 20 км ясно +12.7 +5.7 62 +13 +13 1017.1 1007.0
00 15.06 Ю 1 20 км ясно +10.7 +5.6 71 +11 +11 1015.3 1005.2
03 15.06 Ю 1 20 км ясно +17.3 +6.3 48 +18 +21 1014.1 1004.2 +10.0
06 15.06 З 5
{11}
20 км ясно +26.3 +6.8 29 +26 +32 жарко 1013.0 1003.4
09 15.06 З 3 20 км 6/0
[Ac trans]
+29.2 +11.3 33 +30 +39 жарко 1012.0 1002.5
12 15.06 З 3
{10}
20 км 6/6 600 м
[Cu hum]
+31.7 +12.5 31 +32 +36 жарко 1010.6 1001.3
15 15.06 С 3
{11}
20 км в посл. час гроза 8/8 600 м
[Cu med, cong]
+25.9 +15.7 53 +29 +29 душно 1011.2 1001.7 +31.9
18 15.06 СЗ 2 20 км {гроза} 10/0
[Ac und]
+22.8 +17.6 72 +28 +28 душно 1012.0 1002.4
21 15.06 штиль 0 20 км 10/0
[Ac und]
+20.1 +17.6 86 +23 +23 комфорт 1011.1 1001.4
00 16.06 С 1 20 км 6/0
[Ac trans]
+18.4 +14.8 80 +20 +20 1011.7 1001.9
03 16.06 СВ 1 20 км 6/0
[Ac trans]
+20.1 +14.6 71 +24 +25 комфорт 1011.0 1001.3 +16.8
06 16.06 С 1 20 км 10/0
[Ac und]
+24.9 +14.3 52 +27 +31 жарко 1011.2 1001.6
09 16.06 СЗ 3
{11}
20 км {гроза, ливн. осадки} 10/0
[Ac und]
+23.0 +16.7 68 +28 +32 душно 1011.3 1001.7
12 16.06 СЗ 2 20 км {гроза, ливн. осадки} 10/0
[Ac und]
+24.0 +16.9 65 +28 +31 душно 1010.3 1000.7
15 16.06 СЗ 1 20 км 10/0
[Ac und]
+23.5 +16.9 66 +27 +28 душно 1010.0 1000.4 +25.1 3
18 16.06 С 2 20 км 10/0
[Ac und]
+20.3 +10.6 54 +23 +23 комфорт 1011.1 1001.4
21 16.06 С 1 20 км 6/0
[Ac trans]
+15.9 +9.4 65 +17 +17 1011.8 1001.9
00 17.06 СВ 1 20 км ясно +13.3 +8.0 70 +14 +14 1012.8 1002.8
03 17.06 С 1 20 км ясно +16.6 +8.7 60 +18 +20 1013.5 1003.6 +11.9
06 17.06 С 2 20 км ясно +24.2 +7.9 35 +25 +36 комфорт 1013.9 1004.2
09 17.06 С 3 20 км 6/6 600 м
[Cu hum]
+26.6 +8.0 31 +27 +32 жарко 1014.1 1004.6
12 17.06 СЗ 3
{10}
20 км 6/6 600 м
[Cu hum]
+28.1 +7.1 27 +27 +31 жарко 1013.3 1003.8
15 17.06 С 2 20 км ясно +27.7 +7.2 27 +27 +29 жарко 1012.9 1003.3 +28.7
18 17.06 штиль 0 20 км ясно +18.9 +11.0 60 +20 +20 1013.7 1003.9
21 17.06 штиль 0 20 км ясно +14.1 +11.0 82 +14 +14 1014.1 1004.1
00 18.06 Ю 1 20 км ясно +11.8 +9.7 87 +12 +12 1014.3 1004.2
03 18.06 штиль 0 20 км ясно +18.1 +11.9 67 +18 +21 1014.4 1004.6 +11.7
06 18.06 СЗ 3 20 км ясно +25.9 +8.8 34 +26 +36 жарко 1014.0 1004.4
09 18.06 СЗ 3 20 км 5/5 600 м
[Cu hum]
+28.7 +8.0 27 +28 +36 жарко 1013.2 1003.7
12 18.06 С 2 20 км 6/6 600 м
[Cu hum]
+30.2 +7.2 24 +29 +34 жарко 1012.3 1002.8
15 18.06 СЗ 2 20 км 6/6 600 м
[Cu hum]
+28.9 +7.1 25 +28 +29 жарко 1011.5 1002.0 +30.8
18 18.06 штиль 0 20 км ясно +20.8 +11.1 54 +22 +22 комфорт 1012.2 1002.5
21 18.06 штиль 0 20 км ясно +15.8 +11.1 74 +16 +16 1012.5 1002.6
00 19.06 Ю 1 20 км ясно +13.9 +10.5 80 +14 +14 1012.6 1002.6
03 19.06 штиль 0 20 км 4/0
[Ac trans]
+18.7 +11.6 63 +19 +21 1012.4 1002.6 +13.4
06 19.06 СЗ 1 20 км 6/0
[Ac trans]
+26.6 +12.6 42 +28 +37 жарко 1012.3 1002.8
09 19.06 С 2 20 км 10/0
[Ac und]
+28.4 +13.3 39 +30 +35 жарко 1011.7 1002.2
12 19.06 Ю 2 20 км {гроза} 8/8 300 м
[Cb cap]
+26.6 +15.5 51 +30 +32 душно 1011.8 1002.2

 

Местоположение метеостанции Михайловка (Волгоградская область, Россия): широта 50.08 долгота 43.27 высота над уровнем моря 82 м.

В архиве по умолчанию представлена погода в Михайловке за последнюю неделю. Архивные данные за месяц целиком и за предыдущие месяцы, начиная с января 2011 года, Вы можете получить, выбрав интересующий диапазон дат из раскрывающегося списка и нажав кнопку "Ввод!".


*Определитесь, кто Вы:
робот инопланетянин человек

Внимание! Время в таблицах - всемирное. Для получения местного времени необходимо прибавить поправку, которая равна 3 ч.

Смотрите также архив погоды в соседних городах и на ближайших метеорологических станциях:

Погода в Фролове (Волгоградская область, Россия) (42 км)
Погода в Новоаннинском (Волгоградская область, Россия) (65 км)
Погода в Даниловке (Волгоградская область, Россия) (69 км)
Погода в Серафимовиче (Волгоградская область, Россия) (69 км)
Погода в Ольховке (Волгоградская область, Россия) (94 км)
Погода в Иловле (Волгоградская область, Россия) (101 км)
Погода в Елани (Волгоградская область, Россия) (102 км)
Погода в Урюпинске (Волгоградская область, Россия) (120 км)
Погода в Рудне (Волгоградская область, Россия) (124 км)
Погода в Боковской (Ростовская область, Россия) (141 км)

Пояснения к столбцам:

Ветер - указаны скорость ветра в м/с - средняя за 10 мин, порывы в срок и между сроками (в фигурных скобках) и направление, откуда дует ветер: С - северный, СВ - северо-восточный, В - восточный, ЮВ - юго-восточный, Ю - южный, ЮЗ - юго-западный, З - западный, СЗ - северо-западный.
Видимость - горизонтальная дальность видимости в метрах или километрах. При видимости от 1 до 10 км при отсутствии осадков обычно наблюдается дымка, при ухудшении видимости до 1 км и менее - туман. В сухую погоду видимость может ухудшаться дымом, пылью или мглою.
Явления - указаны атмосферные явления, наблюдавшиеся в срок или в последний час перед сроком; фигурными скобками обозначены явления, наблюдавшиеся между сроками (за 1-3 часа до срока); квадратными скобками обозначены град или гололедные отложения с указанием их диаметра в мм.
Облачность - указаны через наклонную черту общая и нижняя облачность в баллах и высота нижней границы облаков в метрах; квадратными скобками обозначены формы облаков: Ci - перистые, Cs - перисто-слоистые, Cc - перисто-кучевые, Ac - высококучевые, As - высокослоистые, Sc - слоисто-кучевые, Ns - слоисто-дождевые, Cu - кучевые, Cb - кучево-дождевые. Подробнее классификацию облаков см. в Атласе облаков (PDF).
T - Температура воздуха - температура, измеренная на высоте 2 м над землей.
Td - Температура точки росы - температура, при понижении до которой содержащийся в воздухе водяной пар достигнет насыщения.
f - Относительная влажность воздуха - влажноcть воздуха, измеренная на высоте 2 м над землей.
Te - Эффективная температура - температура, которую ощущает одетый по сезону человек в тени. Характеристика душности погоды. При расчете учитывается влияние влажности воздуха и скорости ветра на теплоощущения человека.
Tes - Эффективная температура на солнце - температура, которую ощущает человек, с поправкой на солнечный нагрев. Характеристика знойности погоды. Зависит от высоты солнца над горизонтом, облачности и скорости ветра. Ночью, в пасмурную погоду, а также при ветре 12 м/с и более поправка равна нулю.
P - Атмосферное давление - приведенное к уровню моря атмосферное давление.
Po - Атмосферное давление - измеренное на уровне метеостанции атмосферное давление.
Tmin - Минимальная температура - минимум температуры воздуха на высоте 2 м над землей.
Tmax - Максимальная температура - максимум температуры воздуха на высоте 2 м над землей.
R - Количество осадков - Количество выпавших осадков за период времени, мм. При наведении курсора мыши на число - период времени, за который выпало указанное количество осадков.
R24 - Количество осадков - Количество выпавших осадков за 24 часа, мм.
S - Снежный покров - Высота снежного покрова, см. При наведении курсора мыши на число - состояние снежного покрова и степень покрытия местности в баллах.